Simultaneous Nadir Overpasses (SNOs) Predictions

Prediction of SNOs between AURA and NPP Satellite Orbit:

Table of predicted SNOs for the next 14.0 days since TLE Epoch: 3/9/2014
Index Date (AURA) Time (AURA) Lat,Lon (AURA) SZA (AURA ) Date (NPP) Time (NPP) Lat,Lon (NPP) SZA (NPP ) Distance(km) Time Diff (sec)
1 03/11/2014 01:14:28 -78.06,-129.56 81.51 03/11/2014 01:13:35 -78.05,-129.63 81.45 1.74 53
2 03/11/2014 02:03:42 78.57, 40.62 97.82 03/11/2014 02:04:06 78.57, 40.61 97.81 0.38 24
3 03/13/2014 17:30:49 -78.30, -12.52 82.88 03/13/2014 17:30:25 -78.30, -12.52 82.86 0.23 24
4 03/13/2014 18:20:04 78.75, 157.51 96.51 03/13/2014 18:20:57 78.76, 157.59 96.45 1.86 53
5 03/16/2014 08:57:53 78.02, -65.58 96.42 03/16/2014 08:56:42 78.02, -65.54 96.46 1.13 71
6 03/16/2014 09:47:12 -78.38, 103.79 84.06 03/16/2014 09:47:19 -78.37, 103.70 84.05 2.36 7
7 03/19/2014 01:14:11 78.21, 51.22 95.10 03/19/2014 01:13:32 78.21, 51.27 95.12 1.24 39
8 03/19/2014 02:03:31 -78.52,-139.56 85.33 03/19/2014 02:04:10 -78.52,-139.66 85.34 2.33 39
9 03/21/2014 17:30:31 78.29, 167.51 93.92 03/21/2014 17:30:26 78.28, 167.41 93.95 2.59 5




NCC Satellite Simultaneous Nadir Overpasses (SNOs) Prediction Service
